SR6WVX Weather Reports


Display with metric or nautical units.
time (UTC)temp
F
wind
direction
speed
MPH
gust
MPH
rain 1hr
in
rain 24hr
in
rain mn
in
humidity
%
barometer
mb
20260504110559 86 157 0.0 5.0 0.00 0.00 0.00 28 1007.1
20260504100556 83 270 0.0 7.0 0.00 0.00 0.00 30 1007.9
20260504081550 78 225 0.0 0.0 0.00 0.00 0.00 38 1008.2
20260504081050 76 180 0.0 0.0 0.00 0.00 0.00 39 1008.3
20260504080550 74 180 0.0 0.0 0.00 0.00 0.00 40 1008.3
20260504050540 53 315 0.0 0.0 0.00 0.00 0.00 73 1007.9
20260504045540 51 315 0.0 0.0 0.00 0.00 0.00 75 1007.9
20260504045040 49 315 0.0 0.0 0.00 0.00 0.00 75 1007.8
20260504044539 48 315 0.0 0.0 0.00 0.00 0.00 75 1007.8
20260504044039 48 315 0.0 0.0 0.00 0.00 0.00 75 1007.8
20260504043539 46 225 0.0 0.0 0.00 0.00 0.00 75 1007.8
20260504043039 46 225 0.0 0.0 0.00 0.00 0.00 75 1007.8
20260504042538 46 225 0.0 0.0 0.00 0.00 0.00 75 1007.7
20260504042038 46 225 0.0 0.0 0.00 0.00 0.00 75 1007.6
20260504041538 46 225 0.0 0.0 0.00 0.00 0.00 74 1007.6
20260504041037 46 225 0.0 0.0 0.00 0.00 0.00 74 1007.4
20260504040537 46 225 0.0 0.0 0.00 0.00 0.00 74 1007.4
20260504040037 46 225 0.0 0.0 0.00 0.00 0.00 74 1007.6
20260504035537 46 225 0.0 0.0 0.00 0.00 0.00 75 1007.6
20260504035036 46 225 0.0 0.0 0.00 0.00 0.00 76 1007.6
20260504034536 46 225 0.0 0.0 0.00 0.00 0.00 76 1007.5
20260504034036 46 225 0.0 0.0 0.00 0.00 0.00 77 1007.5
20260504033536 45 225 0.0 0.0 0.00 0.00 0.00 78 1007.4
20260504033035 45 225 0.0 0.0 0.00 0.00 0.00 77 1007.6
20260504032535 45 225 0.0 0.0 0.00 0.00 0.00 78 1007.7
20260504032035 46 247 0.0 0.0 0.00 0.00 0.00 77 1007.8
20260504031535 46 247 0.0 0.0 0.00 0.00 0.00 77 1007.5
20260504031034 46 247 0.0 0.0 0.00 0.00 0.00 77 1007.6
20260504030534 46 247 0.0 0.0 0.00 0.00 0.00 77 1007.7
20260504030034 46 157 0.0 0.0 0.00 0.00 0.00 76 1007.7
20260504025534 46 112 0.0 0.0 0.00 0.00 0.00 76 1007.6
20260504025033 46 112 0.0 0.0 0.00 0.00 0.00 76 1007.4
20260504024533 46 112 0.0 0.0 0.00 0.00 0.00 76 1007.5
20260504024033 46 112 0.0 0.0 0.00 0.00 0.00 76 1007.2
20260504023532 46 112 0.0 0.0 0.00 0.00 0.00 76 1007.2
20260504023032 45 112 0.0 0.0 0.00 0.00 0.00 76 1007.2
20260504022532 44 112 0.0 0.0 0.00 0.00 0.00 76 1007.2
20260504022032 44 112 0.0 0.0 0.00 0.00 0.00 76 1007.0
20260504021531 44 112 0.0 0.0 0.00 0.00 0.00 75 1006.9
20260504021031 44 112 0.0 0.0 0.00 0.00 0.00 75 1006.9
20260504020531 44 112 0.0 0.0 0.00 0.00 0.00 75 1006.7
20260504020031 44 112 0.0 0.0 0.00 0.00 0.00 75 1006.7
20260504015530 44 112 0.0 0.0 0.00 0.00 0.00 74 1006.9
20260504015030 44 112 0.0 0.0 0.00 0.00 0.00 74 1007.0
20260504014530 44 112 0.0 0.0 0.00 0.00 0.00 74 1006.9
20260504014030 44 112 0.0 0.0 0.00 0.00 0.00 73 1006.8
20260504013529 45 112 0.0 0.0 0.00 0.00 0.00 73 1006.8
20260504013029 45 112 0.0 0.0 0.00 0.00 0.00 73 1006.8
20260504012529 45 112 0.0 0.0 0.00 0.00 0.00 73 1006.7
20260504012029 45 112 0.0 0.0 0.00 0.00 0.00 73 1006.8
20260504011528 45 112 0.0 0.0 0.00 0.00 0.00 72 1006.8
20260504011028 45 112 0.0 0.0 0.00 0.00 0.00 72 1006.9
20260504010528 45 112 0.0 0.0 0.00 0.00 0.00 71 1006.7
20260504010027 45 112 0.0 0.0 0.00 0.00 0.00 71 1006.6
20260504005527 45 112 0.0 0.0 0.00 0.00 0.00 71 1006.9
20260504005027 45 112 0.0 0.0 0.00 0.00 0.00 70 1006.7
20260504004527 45 112 0.0 0.0 0.00 0.00 0.00 69 1006.7
20260504004026 46 112 0.0 0.0 0.00 0.00 0.00 69 1006.6
20260504003526 46 112 0.0 0.0 0.00 0.00 0.00 69 1006.7
20260504003026 46 112 0.0 0.0 0.00 0.00 0.00 69 1006.7
20260504002526 46 112 0.0 0.0 0.00 0.00 0.00 69 1006.9
20260504002025 46 112 0.0 0.0 0.00 0.00 0.00 68 1006.9
20260504001525 46 112 0.0 0.0 0.00 0.00 0.00 67 1006.9
20260504001025 46 112 0.0 0.0 0.00 0.00 0.00 67 1006.9
20260504000525 46 112 0.0 0.0 0.00 0.00 0.00 66 1006.9
20260504000024 46 112 0.0 0.0 0.00 0.00 0.00 66 1006.9
20260503235524 47 112 0.0 0.0 0.00 0.00 0.00 65 1006.9
20260503235024 47 112 0.0 0.0 0.00 0.00 0.00 66 1007.0
20260503234524 47 112 0.0 0.0 0.00 0.00 0.00 66 1006.9
20260503234023 47 112 0.0 0.0 0.00 0.00 0.00 66 1007.0
20260503233523 47 112 0.0 0.0 0.00 0.00 0.00 65 1006.9
20260503233023 47 112 0.0 0.0 0.00 0.00 0.00 64 1007.0
20260503232522 48 112 0.0 0.0 0.00 0.00 0.00 63 1007.1
20260503232022 48 112 0.0 0.0 0.00 0.00 0.00 63 1007.1
20260503231522 48 112 0.0 0.0 0.00 0.00 0.00 63 1007.1
20260503231022 48 112 0.0 0.0 0.00 0.00 0.00 63 1007.2
20260503230521 49 112 0.0 0.0 0.00 0.00 0.00 63 1007.1
20260503230021 49 112 0.0 0.0 0.00 0.00 0.00 62 1007.1
20260503225521 49 112 0.0 0.0 0.00 0.00 0.00 61 1007.4
20260503225021 49 112 0.0 0.0 0.00 0.00 0.00 61 1007.4
20260503224520 49 112 0.0 0.0 0.00 0.00 0.00 60 1007.4
20260503224020 49 112 0.0 0.0 0.00 0.00 0.00 60 1007.4
20260503223520 49 112 0.0 0.0 0.00 0.00 0.00 61 1007.3
20260503223020 49 112 0.0 0.0 0.00 0.00 0.00 61 1007.3
20260503222519 49 112 0.0 0.0 0.00 0.00 0.00 60 1007.1
20260503222019 49 112 0.0 0.0 0.00 0.00 0.00 59 1007.2
20260503221519 50 112 0.0 0.0 0.00 0.00 0.00 59 1007.3
20260503221018 50 112 0.0 0.0 0.00 0.00 0.00 58 1007.2
20260503220518 51 112 0.0 0.0 0.00 0.00 0.00 57 1007.3
20260503220018 51 112 0.0 0.0 0.00 0.00 0.00 56 1007.5
20260503215518 51 112 0.0 0.0 0.00 0.00 0.00 56 1007.4
20260503215017 52 112 0.0 0.0 0.00 0.00 0.00 55 1007.4
20260503214517 53 112 0.0 0.0 0.00 0.00 0.00 54 1007.4
20260503214017 54 112 0.0 0.0 0.00 0.00 0.00 52 1007.3
20260503213517 54 112 0.0 0.0 0.00 0.00 0.00 52 1007.5
20260503213016 55 112 0.0 0.0 0.00 0.00 0.00 50 1007.5
20260503212516 56 112 0.0 0.0 0.00 0.00 0.00 49 1007.5
20260503212016 57 112 0.0 0.0 0.00 0.00 0.00 49 1007.6
20260503211516 57 112 0.0 0.0 0.00 0.00 0.00 49 1007.6
20260503211015 58 112 0.0 0.0 0.00 0.00 0.00 48 1007.4
20260503210515 58 112 0.0 0.0 0.00 0.00 0.00 48 1007.7
20260503210015 59 135 0.0 0.0 0.00 0.00 0.00 48 1007.8
20260503205514 59 135 0.0 0.0 0.00 0.00 0.00 47 1007.6
20260503205014 60 112 0.0 0.0 0.00 0.00 0.00 47 1007.6
20260503204514 60 135 0.0 0.0 0.00 0.00 0.00 47 1007.6
20260503204014 60 112 0.0 0.0 0.00 0.00 0.00 47 1007.5
20260503203513 60 112 0.0 0.0 0.00 0.00 0.00 47 1007.6
20260503203013 60 90 0.0 0.0 0.00 0.00 0.00 47 1007.6
20260503202513 60 112 0.0 0.0 0.00 0.00 0.00 47 1007.5
20260503202013 60 135 0.0 0.0 0.00 0.00 0.00 46 1007.4
20260503201512 60 135 0.0 0.0 0.00 0.00 0.00 46 1007.7
20260503201012 60 135 0.0 0.0 0.00 0.00 0.00 46 1007.8
20260503200512 60 112 0.0 0.0 0.00 0.00 0.00 46 1007.7
20260503200012 60 112 0.0 0.0 0.00 0.00 0.00 46 1007.6
20260503195511 60 112 0.0 0.0 0.00 0.00 0.00 46 1007.6
20260503195011 60 112 0.0 0.0 0.00 0.00 0.00 46 1007.8
20260503194511 60 112 0.0 0.0 0.00 0.00 0.00 46 1007.8
20260503194011 59 112 0.0 0.0 0.00 0.00 0.00 46 1007.6
20260503193510 59 112 0.0 0.0 0.00 0.00 0.00 45 1007.6
20260503193010 59 112 0.0 0.0 0.00 0.00 0.00 45 1007.4
20260503192510 60 112 0.0 0.0 0.00 0.00 0.00 44 1007.6
20260503192009 60 112 0.0 0.0 0.00 0.00 0.00 43 1007.5
20260503191509 61 112 0.0 0.0 0.00 0.00 0.00 43 1007.5
20260503191009 61 112 0.0 0.0 0.00 0.00 0.00 43 1007.4
20260503190509 61 112 0.0 0.0 0.00 0.00 0.00 42 1007.4
20260503190008 61 112 0.0 0.0 0.00 0.00 0.00 41 1007.4
20260503185508 62 112 0.0 0.0 0.00 0.00 0.00 39 1007.3
20260503185008 63 112 0.0 0.0 0.00 0.00 0.00 39 1007.4
20260503184508 64 112 0.0 0.0 0.00 0.00 0.00 38 1007.2
20260503184007 65 112 0.0 0.0 0.00 0.00 0.00 38 1007.1
20260503183507 65 112 0.0 0.0 0.00 0.00 0.00 37 1007.1
20260503183007 66 112 0.0 0.0 0.00 0.00 0.00 37 1007.0
20260503182507 66 135 0.0 0.0 0.00 0.00 0.00 36 1006.9
20260503182006 68 135 0.0 0.0 0.00 0.00 0.00 35 1006.9
20260503181506 68 135 0.0 0.0 0.00 0.00 0.00 35 1006.8
20260503181006 69 135 0.0 0.0 0.00 0.00 0.00 34 1006.9
20260503180505 70 112 0.0 0.0 0.00 0.00 0.00 33 1006.8
20260503180005 71 112 0.0 0.0 0.00 0.00 0.00 33 1006.8
20260503175505 72 157 0.0 0.0 0.00 0.00 0.00 32 1006.8
20260503175005 73 157 0.0 2.0 0.00 0.00 0.00 31 1006.9
20260503174504 74 135 0.0 0.0 0.00 0.00 0.00 30 1006.9
20260503174004 75 135 0.0 0.0 0.00 0.00 0.00 29 1007.0
20260503173504 77 112 0.0 0.0 0.00 0.00 0.00 28 1006.9
20260503173004 80 135 0.0 0.0 0.00 0.00 0.00 27 1006.9
20260503172504 82 135 0.0 0.0 0.00 0.00 0.00 25 1006.8
20260503172003 83 157 0.0 0.0 0.00 0.00 0.00 24 1006.8
20260503171503 84 157 0.0 0.0 0.00 0.00 0.00 24 1006.9
20260503171003 84 157 0.0 0.0 0.00 0.00 0.00 23 1006.9
20260503170502 84 157 0.0 0.0 0.00 0.00 0.00 23 1006.9
20260503150956 87 67 0.0 0.0 0.00 0.00 0.00 21 1007.1
20260503150456 87 135 0.0 6.0 0.00 0.00 0.00 21 1007.3
20260503130950 85 90 6.0 7.0 0.00 0.00 0.00 22 1008.7
20260503130450 86 180 6.0 10.0 0.00 0.00 0.00 21 1008.8